Location: Unspecified
(29.9680°N, 0.0000°E)
Time: 08:53:57
(UTC+00:00)

SR - All Passes

Search period start: 24 June 2019 00:00
Search period end: 04 July 2019 00:00
Orbit: 582 x 874 km, 66.7° (Epoch: 23 June)

Date Brightness Start Highest point End Pass type
(mag) Time Alt. Az. Time Alt. Az. Time Alt. Az.
24 Jun - 01:29:01 10° SE 01:31:03 13° ESE 01:33:04 10° ENE visible
24 Jun - 03:08:46 10° SW 03:12:40 35° WNW 03:16:35 10° N visible
24 Jun - 11:53:47 10° N 11:58:30 37° ENE 12:03:31 10° SE daylight
24 Jun - 13:36:22 10° WNW 13:40:20 22° WSW 13:44:30 10° SSW daylight
25 Jun - 02:18:46 10° SSW 02:23:02 87° ESE 02:27:17 10° NNE visible
25 Jun - 11:05:16 10° NNE 11:08:41 18° ENE 11:12:15 10° E daylight
25 Jun - 12:45:54 10° NW 12:50:51 49° WSW 12:56:12 10° S daylight
26 Jun - 01:29:47 10° S 01:33:33 31° ESE 01:37:19 10° NE visible
26 Jun - 03:12:54 10° W 03:15:35 16° NW 03:18:16 10° NNW visible
26 Jun - 11:56:10 10° NNW 12:01:18 76° ENE 12:06:51 10° SSE daylight
27 Jun - 00:42:32 10° SE 00:44:12 12° ESE 00:45:52 10° E visible
27 Jun - 02:21:49 10° SW 02:25:46 38° WNW 02:29:46 10° N visible
27 Jun - 11:06:58 10° N 11:11:38 35° ENE 11:16:37 10° SE daylight
27 Jun - 12:49:22 10° NW 12:53:30 24° WSW 12:57:52 10° SSW daylight
28 Jun - 01:31:55 10° SSW 01:36:09 79° ESE 01:40:24 10° NNE visible
28 Jun - 10:18:31 10° NNE 10:21:49 17° ENE 10:25:13 10° E daylight
28 Jun - 11:58:59 10° NW 12:04:02 52° WSW 12:09:26 10° S daylight
29 Jun - 00:43:01 10° S 00:46:41 29° ESE 00:50:21 10° NE visible
29 Jun - 02:25:49 10° W 02:28:41 17° WNW 02:31:33 10° NNW visible
29 Jun - 11:09:18 10° NNW 11:14:27 71° ENE 11:20:01 10° SSE daylight
29 Jun - 12:54:40 10° W 12:56:03 11° WSW 12:57:27 10° WSW daylight
29 Jun - 23:56:12 10° ESE 23:57:21 11° ESE 23:58:30 10° E visible
30 Jun - 01:34:53 10° SW 01:38:53 41° WNW 01:42:57 10° N visible
30 Jun - 10:20:09 10° N 10:24:46 33° ENE 10:29:42 10° SE daylight
30 Jun - 12:02:23 10° NW 12:06:40 26° WSW 12:11:12 10° SSW daylight
01 Jul - 00:45:04 10° SSW 00:49:17 73° ESE 00:53:32 10° NNE visible
01 Jul - 09:31:48 10° NNE 09:34:56 16° NE 09:38:10 10° E daylight
01 Jul - 11:12:05 10° NW 11:17:11 57° WSW 11:22:40 10° S daylight
01 Jul - 23:56:16 10° SSE 23:59:50 26° ESE 00:03:24 10° NE visible
02 Jul - 01:38:46 10° WSW 01:41:46 19° WNW 01:44:50 10° NNW visible
02 Jul - 10:22:26 10° NNW 10:27:36 66° ENE 10:33:10 10° SSE daylight
02 Jul - 12:07:14 10° W 12:09:13 12° WSW 12:11:16 10° SW daylight
03 Jul - 00:47:56 10° SW 00:52:00 45° WNW 00:56:06 10° N visible
03 Jul - 09:33:20 10° N 09:37:55 31° ENE 09:42:46 10° ESE daylight
03 Jul - 11:15:24 10° NW 11:19:50 27° WSW 11:24:32 10° SSW daylight
